Flag for United Kingdom Weather past 2 weeks in Bath, England, United Kingdom

Now
45 °F

Passing clouds.


Feels Like: 39 °F
Forecast: N/A
Wind: 12 mph from Southwest

Location: Bristol / Lulsgate

Current Time: Jan 25, 2015 at 9:19:37 PM

Latest Report: Jan 25, 2015 at 8:50 PM


Visibility: N/A

Pressure: 30.30 "Hg

Humidity: 93%

Dew point: 43 °F

Location of BathLocation

Historic Weather in Bath — Graph

°F

Bath temperature yesterday

Maximum temperature yesterday: 45 °F (at 12:20 AM)
Minimum temperature yesterday: 36 °F (at 5:50 AM)
Average temperature yesterday: 38 °F

Past Weeks' High & Low Weather Summary

 TemperatureHumidityPressure
High52 °F (Jan 12, 10:20 PM)100% (Jan 12, 5:20 PM)30.48 "Hg (Jan 12, 5:20 PM)
Low28 °F (Jan 20, 6:50 AM)56% (Jan 19, 1:50 PM)29.06 "Hg (Jan 15, 12:50 AM)
Average39 °F86%29.87 "Hg
* Reported Jan 10 8:20 PM — Jan 25 8:20 PM, Bath, Weather by CustomWeather, © 2014

Note: Actual official high and low records may vary slightly from our data, if they occured in-between our weather recording intervals... More about our weather records

Advertising

Bath weather history for previous 24 hours

 ConditionsComfort  
Time TempWeatherWind HumidityBarometerVisibility
8:20 PM
Jan 25
45 °FLight rain. Passing clouds.13 mph93%30.33 "Hg5 mi
7:50 PM45 °FPassing clouds.12 mph100%30.33 "HgN/A
7:20 PM45 °FPassing clouds.9 mph93%30.33 "HgN/A
6:50 PM45 °FPassing clouds.13 mph93%30.33 "HgN/A
6:20 PM45 °FDrizzle. Fog.10 mph93%30.33 "Hg2 mi
5:50 PM45 °FDrizzle. Fog.14 mph93%30.36 "Hg1 mi
5:20 PM45 °FDrizzle. Fog.12 mph93%30.36 "Hg1 mi
4:50 PM45 °FPassing clouds.12 mph93%30.36 "Hg1 mi
4:20 PM45 °FDrizzle. Partly sunny.12 mph93%30.36 "Hg3 mi
3:50 PM45 °FBroken clouds.14 mph87%30.36 "HgN/A
3:20 PM45 °FPartly sunny.10 mph87%30.36 "HgN/A
2:50 PM45 °FPartly sunny.12 mph87%30.36 "HgN/A
2:20 PM45 °FPartly sunny.13 mph87%30.39 "HgN/A
1:50 PM45 °FPartly sunny.14 mph87%30.39 "HgN/A
1:20 PM45 °FPartly sunny.13 mph81%30.39 "HgN/A
12:50 PM45 °FPartly sunny.14 mph81%30.42 "HgN/A
12:20 PM43 °FPartly sunny.10 mph87%30.42 "HgN/A
11:50 AM43 °FPartly sunny.15 mph81%30.42 "HgN/A
11:20 AM43 °FPartly sunny.12 mph81%30.42 "HgN/A
10:50 AM43 °FPartly sunny.10 mph81%30.42 "HgN/A
10:20 AM43 °FPartly sunny.12 mph81%30.42 "HgN/A
9:50 AM41 °FScattered clouds.12 mph81%30.42 "HgN/A
9:20 AM41 °FPartly sunny.10 mph81%30.45 "HgN/A
8:50 AM41 °FPartly sunny.12 mph81%30.45 "HgN/A
8:20 AM41 °FPartly sunny.13 mph81%30.42 "HgN/A
7:50 AM41 °FPassing clouds.9 mph76%30.42 "HgN/A
7:20 AM41 °FPassing clouds.10 mph76%30.45 "HgN/A
6:50 AM39 °FPassing clouds.8 mph81%30.45 "HgN/A
6:20 AM39 °FPassing clouds.10 mph81%30.45 "HgN/A
5:50 AM39 °FPassing clouds.7 mph81%30.45 "HgN/A
5:20 AM37 °FPassing clouds.7 mph87%30.45 "HgN/A
4:50 AM39 °FPassing clouds.7 mph81%30.48 "HgN/A
4:20 AM37 °FClear.7 mph87%30.45 "Hg10 mi
3:50 AM37 °FClear.7 mph87%30.45 "Hg10 mi
3:20 AM37 °FClear.5 mph87%30.48 "Hg10 mi
2:50 AM37 °FClear.6 mph87%30.48 "Hg10 mi
2:20 AM36 °FClear.6 mph93%30.48 "Hg10 mi
1:50 AM36 °FClear.5 mph93%30.48 "Hg10 mi
1:20 AM36 °FClear.7 mph93%30.45 "Hg10 mi
12:50 AM34 °FPassing clouds.5 mph87%30.45 "HgN/A
12:20 AM36 °FClear.7 mph87%30.48 "Hg10 mi
11:50 PM
Jan 24
36 °FClear.6 mph87%30.48 "Hg10 mi
11:20 PM36 °FClear.7 mph87%30.48 "Hg10 mi
10:50 PM36 °FClear.3 mph87%30.48 "Hg10 mi
10:20 PM36 °FClear.6 mph87%30.48 "Hg10 mi
9:50 PM36 °FClear.7 mph87%30.48 "Hg10 mi
9:20 PM37 °FClear.5 mph81%30.48 "Hg10 mi
Weather by CustomWeather, © 2014

See weather overviewHow to use our weather pages